Regional Weather Roundup
Issued by NWS Charleston, SC

Current Version | Previous Version | Graphics & Text | Print | Product List | Glossary On
Versions: 1 2 3 4 5 6 7 8 9 10 11 12 13 14 15 16 17 18 19 20 21 22 23 24 25 26 27 28 29 30 31 32 33 34 35 36 37 38 39 40 41 42 43 44 45 46 47 48 49 50
000
ASUS42 KCHS 180927
RWRCHS

REGIONAL WEATHER ROUNDUP
NATIONAL WEATHER SERVICE CHARLESTON SC
400 AM EST WED JAN 18 2017

NOTE: "FAIR" INDICATES FEW OR NO CLOUDS BELOW 12,000 FEET WITH NO
SIGNIFICANT WEATHER AND/OR OBSTRUCTIONS TO VISIBILITY.

NOT ALL STATIONS ARE QUALITY CONTROLLED. USE DATA WITH CAUTION...
ESPECIALLY DEWPOINT OBSERVATIONS.

SCZ027-030-031-034>040-042>050-181000-
...SOUTHEAST SOUTH CAROLINA...

CITY           SKY/WX    TMP DP  RH WIND       PRES   REMARKS
N CHARLESTON   PTCLDY    62  57  83 SW7       30.08F
WATERFRONT PRK   N/A     64  60  87 VRB3      30.09F
MOUNT PLEASANT FAIR      63  57  82 SW6       30.08F
JOHNS ISLAND   FAIR      63  59  88 SW5       30.09F
PINOPOLIS        N/A     63  59  88 SW7       29.98F
MONCKS CORNER  FAIR      61  57  88 SW7       30.07F
SUMMERVILLE    FAIR     N/A N/A N/A SW3       30.09F
BEAUFORT MCAS  CLEAR     59  56  89 SW9       30.11F
BEAUFORT ARPT  FAIR      59  57  94 SW6       30.10S
HILTON HEAD IS CLEAR     61  59  94 S7        30.11F
WALTERBORO     SUNNY     61 N/A N/A SW5       30.10S
ALLENDALE      FAIR      61  57  88 CALM      30.08S

...SOUTHERN MIDLANDS AND PEE DEE...

CITY           SKY/WX    TMP DP  RH WIND       PRES   REMARKS
GEORGETOWN     FAIR      61  57  88 SW9       30.07F
KINGSTREE      FAIR      61  55  82 SW6       30.05S
ORANGEBURG     PTCLDY    61  57  87 SW10      30.06F
BARNWELL       FAIR      63  61  94 SW7       30.08S
AIKEN          FAIR      59  55  88 SW8       30.10S
MANNING        FAIR      61  55  82 SW8       30.06S
COLUMBIA       PTCLDY    65  56  72 SW9       30.04R
SUMTER         CLOUDY    60  56  87 SW8       30.03R
FLORENCE       PTCLDY    62  58  86 SW10      30.02F
MYRTLE BEACH   PTCLDY    63  55  77 SW8       30.07F
N MYRTLE BEACH PTCLDY    59  57  93 SW8       30.04F

$$

GAZ063-065-086>088-099>101-113>116-118-119-134>141-150-181000-
...SOUTHEAST GEORGIA...

CITY           SKY/WX    TMP DP  RH WIND       PRES   REMARKS
SAVANNAH ARPT  CLEAR     61  56  83 SW8       30.12F
HUNTER AAF     CLEAR     60  60 100 S5        30.09F
FORT STEWART   CLEAR     58  55  89 CALM      30.10F
STATESBORO     CLEAR     62  60  93 W3        30.11R
SYLVANIA       SUNNY    N/A N/A N/A CALM      30.11S
CLAXTON        FAIR     N/A N/A N/A CALM      30.11F

...CSRA...CENTRAL AND FAR SOUTHEAST GEORGIA...

CITY           SKY/WX    TMP DP  RH WIND       PRES   REMARKS
THOMSON        CLEAR     63  61  93 NW3       30.13F
AUGUSTA-BUSH   PTCLDY    64  58  80 SW6       30.08R
AUGUSTA-DANIEL PTCLDY    64  57  78 SW5       30.09R
SWAINSBORO     FAIR      61  59  94 W5        30.12S
VIDALIA        CLEAR     63  63 100 SW7       30.12S
EASTMAN        FAIR      63  63 100 SW3       30.16R
HAZLEHURST     FAIR      64  64 100 SW6       30.12S
ALMA           CLOUDY    61  60  97 SW5       30.14F
WAYCROSS       CLOUDY    63  63 100 SW3       30.15S
JESUP          FAIR      57  54  88 SW3       30.14S
BAXLEY         CLOUDY    64  64 100 W3        30.13S
BRUNSWICK      CLEAR     59  59 100 SW5       30.15F FOG
SAINT SIMONS   CLEAR     59  57  93 SW6       30.14F

$$

SCZ027-028-034-036>038-045-046-048>050-GAZ119-141-181000-
...LAKE AND SUPPLEMENTAL COASTAL OBSERVATIONS...

STATION/POSITION TIME  TEMP    WIND        PRES    WAVE   SWELL
                       AIR SEA DIR/SP/G            HT/PER HT/PER/DIR
                 (UTC) (F)     (DEG/KT/KT) (MB)    (FT/S) (FT/S/D)
WINYAH BAY       0830   63     230/  7     1018.0S
LAKE MURRAY      0850   66     250/ 15/ 20 1016.6F
ACE BASIN NERRS  0830   60        CALM     1020.0S
FORT PULASKI     0900   60 56  230/  4/  6 1020.0
SAPELO ISLAND    0900   58     180/  4     1020.0

$$

ANZ835-935-AMZ111-154-330-350-352-354-370-450-454-472-181000-
...C-MAN AND BUOY OBSERVATIONS...

STATION/POSITION TIME  TEMP    WIND        PRES    WAVE   SWELL
                       AIR SEA DIR/SP/G            HT/PER HT/PER/DIR
                 (UTC) (F)     (DEG/KT/KT) (MB)    (FT/S) (FT/S/D)
BUOY 41004       0850   70 71  230/ 19/ 23 1018.5F   4/ 4   2/130/ 8
BUOY 41008       0850   62 59  230/  8/ 10 1020.2F   2/10   2/110/10
FOLLY BEACH CMAN 0900   59     230/  9/ 11 1019.3F
CAPERS NEARSHORE 0908   57 54  240/ 12/ 14 1018.6F
FRIPP NEARSHORE  0908   59 57  240/ 10/ 12 1019.3F


STATION/POSITION TIME  TEMP    WIND        PRES    WAVE   SWELL
                       AIR SEA DIR/SP/G            HT/PER HT/PER/DIR
                 (UTC) (F)     (DEG/KT/KT) (MB)    (FT/S) (FT/S/D)
5E ST. MARYS GA  0900      61                N/A     2/ 5
FRYING PAN BUOY  0910   71 71  220/ 21/ 27 1017.4
BUOY 41025       0850   70 72  250/ 21/ 27 1014.9F   7/ 6   2/140/10
CAPE LOOKOUT NC  0900   62     230/ 12/ 16 1015.6F
BUOY 41002       0850   72 72  220/ 17/ 19 1019.7F   4/ 5   2/ 80/10
BUOY 41010       NOT AVBL
ST AUGUSTINE FL  0900   62 62  260/  5/  6 1021.9F


$$




USA.gov is the U.S. government's official web portal to all federal, state and local government web resources and services.